www.pogodaiklimat.ru

Погода и климат >> Архив погоды >> Россия >> Ненецкий АО >> Мыс Белый Нос


ПОГОДА на Мысе Белый Нос

  • Прогноз погоды на Мысе Белый Нос
  • Монитор погоды на Мысе Белый Нос

АРХИВ ПОГОДЫ на Мысе Белый Нос

Время (UTC), дата Ветер
(напр.,м/с)
 
Видим.   Явления Облачность Т
(С)
Тd
(С)
f
(%)
Тe
(С)
Тes
(С)
Комфортность P
(гПа)
Po
(гПа)
Тmin
(С)
Tmax
(С)
R
(мм)
R24
(мм)
S
(см)
00 16.09 В 9-12
{14}
20 км 10/0
[Ac und]
+2.2 -0.2 84 -5 -5 995.8 995.1
03 16.09 В 9-12
{14}
20 км 9/0
[Ac trans]
+2.5 +0.1 84 -5 -5 995.1 994.3 +1.9
06 16.09 В 10-13
{13}
20 км 9/4 300 м
[Sc Ac und]
+4.0 +0.9 80 -3 -3 994.3 993.6
09 16.09 В 8-10
{13}
20 км 10/6 300 м
[Sc Ac und]
+5.5 +1.8 77 0 0 994.1 993.4
12 16.09 В 7
{11}
20 км 10/10 300 м
[Sc]
+5.1 +2.1 81 -0 -0 994.2 993.5
15 16.09 В 7
{10}
20 км 10/10 300 м
[Sc]
+3.9 +1.4 84 -2 -2 993.5 992.7 +5.6
18 16.09 СВ 6 20 км 10/10 300 м
[Sc]
+3.4 +1.5 87 -2 -2 992.5 991.8
21 16.09 СВ 5 20 км 10/10 300 м
[Sc]
+3.6 +1.9 89 -2 -2 991.3 990.6
00 17.09 В 4 20 км {дождь} 10/10 300 м
[Sc]
+3.6 +1.8 88 -1 -1 990.6 989.8
03 17.09 В 3 20 км 10/3 300 м
[Sc Ac und]
+3.7 +2.1 89 -0 -0 989.8 989.1 +3.3 0.6
06 17.09 ЮВ 3 4000 м слаб. дождь 10/6 300 м
[Sc Ac As]
+5.9 +4.3 89 +3 +3 989.5 988.8
09 17.09 ЮЗ 5 20 км {дождь} 10/4 300 м
[Sc Ac und]
+6.4 +3.9 84 +2 +2 989.8 989.0
12 17.09 ЮЗ 2 4000 м слаб. дождь 10/3 300 м
[Sc Ac und]
+6.6 +3.8 82 +4 +5 990.6 989.9
15 17.09 ЮЗ 3 20 км {дождь} 10/8 300 м
[Sc Ac und]
+6.8 +4.3 84 +4 +4 991.0 990.3 +6.9 0.9
18 17.09 ЮВ 2 20 км {дождь} 10/10 300 м
[Sc]
+5.4 +3.5 88 +3 +3 990.9 990.2
21 17.09 ЮВ 2 20 км 8/5 300 м
[Sc Ac cast]
+3.8 +2.2 89 +1 +1 990.8 990.1
00 18.09 СВ 2 2000 м дымка 10/10 300 м
[Sc]
+3.5 +2.0 90 +1 +1 991.0 990.3
03 18.09 ЮВ 1 4000 м дымка {туман} 10/10 600 м
[Sc]
+5.1 +3.6 90 +4 +4 991.1 990.4 +2.8
06 18.09 Ю 4 20 км в посл. час ливневой дождь {туман} 10/10 300 м
[Cb cap]
+6.5 +5.0 90 +3 +3 991.4 990.7
09 18.09 Ю 4 20 км {ливн. осадки} 10/10 300 м
[Sc]
+7.6 +5.4 86 +4 +4 992.0 991.3
12 18.09 ЮВ 4 20 км {ливн. осадки} 10/6 300 м
[Sc diur, vesp Ac und]
+8.8 +5.8 81 +6 +6 992.3 991.6
15 18.09 ЮВ 4 20 км {ливн. осадки} 10/6 300 м
[Sc diur, vesp Ac cast Cs]
+6.7 +4.3 85 +3 +3 992.6 991.9 +8.9 2
18 18.09 СЗ 5 20 км в посл. час ливневой дождь 9/8 300 м
[Cb cap Ac trans]
+6.3 +3.9 85 +2 +2 993.4 992.6
21 18.09 СЗ 4 20 км 10/10 300 м
[Sc]
+6.2 +2.4 77 +3 +3 994.0 993.3
00 19.09 СЗ 2 20 км 9/8 300 м
[Sc Ac trans]
+5.8 +2.2 78 +3 +3 994.7 994.0
03 19.09 ЮВ 2 20 км 10/1 300 м
[Sc Ac und]
+3.5 +1.7 88 +1 +1 994.9 994.2 +3.2 0.3
06 19.09 ЮВ 2 20 км {ливн. осадки} 9/6 300 м
[Cb cap Ac trans Cc]
+6.4 +1.9 73 +4 +5 995.4 994.7
09 19.09 СЗ 3 20 км {ливн. осадки} 9/9 300 м
[Cb cap Cc]
+6.8 +1.5 69 +4 +4 996.0 995.2
12 19.09 З 4 20 км {ливн. осадки} 6/5 300 м
[Sc diur, vesp Ci fib]
+6.6 0.0 63 +3 +3 996.8 996.1
15 19.09 СЗ 4 20 км 10/9 300 м
[Sc Cs]
+5.7 -1.2 61 +2 +2 997.1 996.4 +8.0 0.1
18 19.09 С 1 20 км 10/10 600 м
[Sc]
+4.4 +0.4 75 +3 +3 997.1 996.4
21 19.09 С 3 20 км 10/10 600 м
[Sc]
+3.6 -0.9 72 0 0 996.5 995.8
00 20.09 С 3 20 км 10/10 600 м
[Sc]
+3.6 -1.4 70 0 0 996.5 995.8
03 20.09 СЗ 5 20 км 8/8 600 м
[Sc]
+4.0 -0.2 74 -1 -1 996.2 995.5 +3.0
06 20.09 СЗ 7 20 км 6/3 600 м
[Sc Ci fib]
+4.3 -1.1 68 -1 -1 995.8 995.1
09 20.09 СЗ 7-10
{11}
20 км 9/9 600 м
[Sc]
+4.8 -1.4 64 -0 -0 996.5 995.7
12 20.09 СЗ 9-11
{11}
20 км 9/8 300 м
[Sc Ci fib]
+5.6 -0.4 65 0 0 996.8 996.1
15 20.09 СЗ 7
{12}
20 км 6/6 300 м
[Sc]
+5.1 +0.3 71 -0 -0 996.7 996.0 +5.7
18 20.09 З 8-12
{14}
20 км 4/4 300 м
[Sc]
+5.2 +0.4 71 -0 -0 996.5 995.7
21 20.09 З 8-13
{15}
20 км {ливн. осадки} 9/9 300 м
[Cb cap]
+5.5 +0.1 68 0 0 996.0 995.3
00 21.09 З 10-15
{16}
4000 м слаб. ливневой дождь 10/10 300 м
[Cb cap]
+4.8 +0.9 76 -2 -2 996.1 995.4
03 21.09 З 10-13
{16}
20 км {ливн. осадки} 6/6 300 м
[Cb cap]
+5.3 +0.3 70 -1 -1 995.9 995.2 +4.6 1
06 21.09 З 10-15
{17}
20 км {ливн. осадки} 8/8 300 м
[Cb cap Ac cast]
+5.6 +0.8 71 -0 -0 996.5 995.8 +4.4
09 21.09 З 11-15
{16}
20 км 8/6 300 м
[Cb cap Ac cast Ci fib]
+5.9 +0.4 68 -0 -0 997.4 996.6
12 21.09 З 11-14
{15}
20 км 9/6 300 м
[Cb cap Ac trans Ci fib]
+5.9 +0.3 67 -0 -0 998.3 997.6
15 21.09 З 11-14
{14}
20 км {ливн. осадки} 10/8 300 м
[Cb cap Cs]
+5.3 +0.7 72 -1 -1 998.5 997.8 +6.2 0.9
18 21.09 З 9-13
{14}
20 км {ливн. осадки} 10/10 600 м
[Sc]
+5.1 +1.2 76 -1 -1 998.8 998.0
21 21.09 З 10-12
{15}
20 км в посл. час ливневой дождь 10/10 300 м
[Cb cap]
+4.8 +1.4 79 -2 -2 998.9 998.2
00 22.09 З 9-12
{14}
20 км в посл. час ливневой дождь 9/9 300 м
[Cb cap]
+4.7 +1.0 77 -1 -1 999.3 998.6
03 22.09 ЮЗ 8-10
{12}
20 км в посл. час ливневой дождь 9/8 300 м
[Cb cap Ac cast]
+4.6 +1.4 80 -1 -1 999.7 999.0 +4.1 1
06 22.09 ЮЗ 8-10
{12}
20 км {ливн. осадки} 9/9 300 м
[Sc]
+4.5 +1.0 78 -1 -1 1001.1 1000.3
09 22.09 ЮЗ 6
{10}
20 км 9/9 300 м
[Sc]
+4.6 +0.6 75 -1 -0 1001.6 1000.9
12 22.09 ЮЗ 3 20 км 9/9 600 м
[Sc]
+4.6 +0.1 73 +1 +1 1001.8 1001.1
15 22.09 ЮВ 3 20 км 8/6 600 м
[Sc diur, vesp Ci fib]
+0.2 -2.2 84 -4 -4 1001.9 1001.2 +5.2
18 22.09 В 2 20 км 4/4 600 м
[Sc diur, vesp]
+1.6 -1.2 82 -2 -2 1001.3 1000.6
21 22.09 В 2 20 км 4/4 600 м
[Sc diur, vesp]
-1.6 -3.6 86 -5 -5 1000.3 999.5

 

Местоположение метеостанции Мыс Белый Нос (Ненецкий АО, Россия): широта 69.60 долгота 60.21 высота над уровнем моря 6 м.

В архиве по умолчанию представлена погода на Мысе Белый Нос за последнюю неделю. Архивные данные за месяц целиком и за предыдущие месяцы, начиная с января 2011 года, Вы можете получить, выбрав интересующий диапазон дат из раскрывающегося списка и нажав кнопку "Ввод!".


*Определитесь, кто Вы:
робот инопланетянин человек

Внимание! Время в таблицах - всемирное. Для получения местного времени необходимо прибавить поправку, которая равна 3 ч.

Смотрите также архив погоды в соседних городах и на ближайших метеорологических станциях:

Погода в Амдерме (Ненецкий АО, Россия) (60 км)
Погода в Имени Федорова (Ненецкий АО, Россия) (104 км)
Погода в Варандее (Ненецкий АО, Россия) (122 км)
Погода в Усть-Каре (Ненецкий АО, Россия) (189 км)
Погода на Мысе Константиновском (Ненецкий АО, Россия) (220 км)
Погода в Марресале (Ямало-Ненецкий АО, Россия) (255 км)
Погода в Хорей-Вере (Ненецкий АО, Россия) (257 км)
Погода в Ходоварихе (Ненецкий АО, Россия) (265 км)
Погода в Воркуте (Коми, Россия) (281 км)
Погода в Харуте (Ненецкий АО, Россия) (307 км)

Пояснения к столбцам:

Ветер - указаны скорость ветра в м/с - средняя за 10 мин, порывы в срок и между сроками (в фигурных скобках) и направление, откуда дует ветер: С - северный, СВ - северо-восточный, В - восточный, ЮВ - юго-восточный, Ю - южный, ЮЗ - юго-западный, З - западный, СЗ - северо-западный.
Видимость - горизонтальная дальность видимости в метрах или километрах. При видимости от 1 до 10 км при отсутствии осадков обычно наблюдается дымка, при ухудшении видимости до 1 км и менее - туман. В сухую погоду видимость может ухудшаться дымом, пылью или мглою.
Явления - указаны атмосферные явления, наблюдавшиеся в срок или в последний час перед сроком; фигурными скобками обозначены явления, наблюдавшиеся между сроками (за 1-3 часа до срока); квадратными скобками обозначены град или гололедные отложения с указанием их диаметра в мм.
Облачность - указаны через наклонную черту общая и нижняя облачность в баллах и высота нижней границы облаков в метрах; квадратными скобками обозначены формы облаков: Ci - перистые, Cs - перисто-слоистые, Cc - перисто-кучевые, Ac - высококучевые, As - высокослоистые, Sc - слоисто-кучевые, Ns - слоисто-дождевые, Cu - кучевые, Cb - кучево-дождевые. Подробнее классификацию облаков см. в Атласе облаков (PDF).
T - Температура воздуха - температура, измеренная на высоте 2 м над землей.
Td - Температура точки росы - температура, при понижении до которой содержащийся в воздухе водяной пар достигнет насыщения.
f - Относительная влажность воздуха - влажноcть воздуха, измеренная на высоте 2 м над землей.
Te - Эффективная температура - температура, которую ощущает одетый по сезону человек в тени. Характеристика душности погоды. При расчете учитывается влияние влажности воздуха и скорости ветра на теплоощущения человека.
Tes - Эффективная температура на солнце - температура, которую ощущает человек, с поправкой на солнечный нагрев. Характеристика знойности погоды. Зависит от высоты солнца над горизонтом, облачности и скорости ветра. Ночью, в пасмурную погоду, а также при ветре 12 м/с и более поправка равна нулю.
P - Атмосферное давление - приведенное к уровню моря атмосферное давление.
Po - Атмосферное давление - измеренное на уровне метеостанции атмосферное давление.
Tmin - Минимальная температура - минимум температуры воздуха на высоте 2 м над землей.
Tmax - Максимальная температура - максимум температуры воздуха на высоте 2 м над землей.
R - Количество осадков - Количество выпавших осадков за период времени, мм. При наведении курсора мыши на число - период времени, за который выпало указанное количество осадков.
R24 - Количество осадков - Количество выпавших осадков за 24 часа, мм.
S - Снежный покров - Высота снежного покрова, см. При наведении курсора мыши на число - состояние снежного покрова и степень покрытия местности в баллах.